Weather in Sumki

Russia / Kurgan Oblast     55°02′49″N   65°43′51″E
temp.,
°C
wind,
m/s
gust,
m/s
humid.,
%
clouds,
%
prec.,
mm/h
press.,
hPa
HPBL,
m
24 january, mon
mon2423:00−23se2210080 0.0 10409
02:00−24se2210023 0.0 10409
05:00−25s11995 0.0 10419
08:00−25ssw12995 0.0 10419
11:00−18ssw2293100 0.0 104150
14:00−14s3488100 0.0 1039119
17:00−16sw2293100 0.0 103931
20:00−16sw3692100 0.0 1038106
25 january, tue
tue2523:00−14sw4889100 0.0 1036171
02:00−14wsw3890100 0.0 1035173
05:00−13sw4889100 0.0 1033144
08:00−14wsw3893100 0.0 1032112
11:00−12wsw4895100 0.0 1031177
14:00−8wsw51191100 0.0 1029304
17:00−9wsw51290100 0.0 1028288
20:00−10wsw51286100 0.0 1028250
26 january, wed
wed2623:00−11w51189100 0.0 1028179
02:00−13w4991100 0.0 1028144
05:00−15w489261 0.0 102991
08:00−17w359441 0.0 102948
11:00−14w359037 0.0 1030105
14:00−11wsw23865 0.0 1029102
17:00−17ssw229479 0.0 103111
20:00−17s3689100 0.0 103160
27 january, thu
thu2723:00−16s3894100 0.0 103090
02:00−15ssw41093100 0.0 1030137
05:00−16s498793 0.0 1029117
08:00−16s41083100 0.0 1030151
11:00−12ssw51283100 0.0 1029229
14:00−10ssw51186100 0.0 1028286
17:00−10ssw51088100 0.0 1028218
20:00−13ssw3891100 0.0 1029130
28 january, fri
fri2823:00−10ssw3891100 0.0 1028162
02:00−11ssw3792100 0.0 1028123
05:00−12s3692100 0.0 1028104
08:00−13s3592100 0.0 102875
11:00−12s3688100 0.0 1027118
14:00−9sse2586100 0.0 1026143
17:00−13sse3487100 0.0 102652
20:00−15sse3686100 0.0 102669